[Iaude] MPEC C10: 2024 BS4 [a=1.60,e=0.37,i=14.8,H=25.6]
    mpec at marsden.cfa.harvard.edu 
    mpec at marsden.cfa.harvard.edu
       
    Thu Feb  1 15:07:57 EST 2024
    
    
  
M.P.E.C. 2024-C10                              Issued 2024 February 1, 20:06 UT
     The Minor Planet Electronic Circulars contain information on unusual
         minor planets, routine data on comets and natural satellites,
         and occasional editorial announcements.  They are published
    on behalf of Division F of the International Astronomical Union by the
          Minor Planet Center, Smithsonian Astrophysical Observatory,
                          Cambridge, MA 02138, U.S.A.
			  
             Prepared using the Tamkin Foundation Computer Network
                              MPC at CFA.HARVARD.EDU
            URL https://www.minorplanetcenter.net/    ISSN 1523-6714
                                    2024 BS4                                    
Observations:
     K24B04S*1C2024 01 31.27558109 40 15.488+56 03 21.92         19.79GVEC010G96
     K24B04S 1C2024 01 31.28078809 40 15.366+56 01 40.80         20.15GVEC010G96
     K24B04S 1C2024 01 31.28598409 40 15.233+56 00 00.50               VEC010G96
     K24B04S KB2024 01 31.32205 09 40 08.369+55 47 42.90         19.7 GXEC010H36
     K24B04S KB2024 01 31.32860 09 40 08.263+55 45 30.10         19.7 GXEC010H36
     K24B04S KB2024 01 31.33515 09 40 08.124+55 43 17.47         19.7 GXEC010H36
     K24B04S KC2024 01 31.44191609 40 10.621+55 06 55.48         20.21GVEC010I52
     K24B04S KC2024 01 31.44356009 40 10.549+55 06 20.56         20.30GVEC010I52
     K24B04S KC2024 01 31.44421109 40 10.571+55 06 06.77         20.02GVEC010I52
     K24B04S KC2024 01 31.44485909 40 10.592+55 05 52.69         19.94GVEC010I52
     K24B04S KC2024 01 31.84995909 41 22.08 +52 38 39.0          19.3 GXEC010958
     K24B04S KC2024 01 31.85728309 41 22.40 +52 36 00.2          19.6 GXEC010958
     K24B04S KC2024 01 31.86455209 41 22.66 +52 33 21.3          19.5 GXEC010958
     K24B04S KC2024 01 31.87761209 41 20.74 +52 28 51.6          19.8 GVEC010L06
     K24B04S KC2024 01 31.87989709 41 20.80 +52 28 01.1          19.7 GVEC010L06
     K24B04S KC2024 01 31.88116709 41 20.81 +52 27 33.3          19.8 GVEC010L06
     K24B04S KB2024 01 31.88413 09 41 16.93 +52 26 51.3          20.0 GXEC010M45
     K24B04S KB2024 01 31.88870 09 41 16.86 +52 25 10.1                XEC010M45
     K24B04S KB2024 01 31.89327 09 41 16.91 +52 23 29.1          19.7 GXEC010M45
     K24B04S IC2024 01 31.89508909 41 20.14 +52 22 33.6          19.6 GXEC010595
     K24B04S IC2024 01 31.90199709 41 20.18 +52 20 00.6          19.7 GXEC010595
     K24B04S IC2024 01 31.90890509 41 20.22 +52 17 27.1          19.3 GXEC010595
     K24B04S KC2024 02 01.24068309 41 47.46 +50 08 22.4          19.5 GVEC010H21
     K24B04S KC2024 02 01.24348309 41 47.38 +50 07 15.1          19.8 GVEC010H21
     K24B04S KC2024 02 01.24628309 41 47.31 +50 06 07.8          19.8 GVEC010H21
     K24B04S KC2024 02 01.24908109 41 47.24 +50 05 00.5          20.0 GVEC010H21
     K24B04S KB2024 02 01.79592509 42 48.025+46 08 53.06         18.2 GXEC010B72
     K24B04S KB2024 02 01.80831309 42 48.915+46 03 26.13         19.8 GXEC010B72
Observer details:
595 Farra d'Isonzo.  Observer E. Pettarin.  0.61-m f/4.5 reflector + CCD.
958 Observatoire de Dax.  Observers P. Dupouy, J. B. de Vanssay.  Measurer P.
    Dupouy.  0.43-m f/2.7 Reflector + CCD.
B72 Soerth Observatory.  Observer B. Koch.  0.36-m f/7.6 reflector + CMO.
G96 Mt. Lemmon Survey.  Observer J. K. Hogan.  Measurers T. Beuden, V. F.
    Carvajal, D. Fay, J. B. Fazekas, D. C. Fuls, A. R. Gibbs, A. D. Grauer, H.
    Groeller, J. K. Hogan, R. A. Kowalski, S. M. Larson, G. J. Leonard, D.
    Rankin, R. L. Seaman, F. C. Shelly, K. W. Wierzchos.  1.5-m reflector +
    10K CCD.
H21 Astronomical Research Observatory, Westfield.  Observer R. Holmes.
    Measurers T. Linder, R. Holmes, L. Horn.  0.76-m f/3.0 astrograph + CCD.
H36 Sandlot Observatory, Scranton.  Observer G. Hug.  0.56-m f/4.8 reflector +
    CMO.
I52 Steward Observatory, Mt. Lemmon Station.  Observer R. A. Kowalski.
    Measurers E. C. Beshore, D. Fay, J. B. Fazekas, D. C. Fuls, A. R. Gibbs,
    A. D. Grauer, H. Groeller, J. K. Hogan, R. A. Kowalski, S. M. Larson, G.
    J. Leonard, D. Rankin, R. L. Seaman, F. C. Shelly, K. W. Wierzchos.  1.0-m
    prime focus + CCD.
L06 Sormano 2 Observatory, Bellagio Via Lattea.  Observers E. Valli, G.
    Ventre.  Measurer P. Sicoli.  0.5-m f/6.8 reflector + CCD.
M45 Starhopper Observatory, Sfantu Gheorghe.  Observer F. Ursache.  0.41-m
    f/7.5 reflector + CMO.
Orbital elements:
2024 BS4                                                 Earth MOID = 0.0260 AU
Epoch 2023 Sept. 13.0 TT = JDT 2460200.5                MPC                     
M 288.24650              (2000.0)            P               Q                  
n   0.48622411     Peri.  182.71079     -0.74737918     -0.64000789             
a   1.6016897      Node   315.74770     +0.61428071     -0.56334741             
e   0.3675107      Incl.   14.80939     +0.25314732     -0.52252234             
P   2.03           H   25.68          G   0.15           U   7                  
Residuals in seconds of arc
240131 G96  0.1+  1.0-    240131 958  1.4+  0.7-    240131 595  0.1-  0.3+
240131 G96  0.0   0.3-    240131 958  0.6+  0.8-    240131 595  0.1-  0.2+
240131 G96  0.1-  1.3+    240131 958  0.4-  1.9-    240201 H21  0.0   0.0
240131 H36  0.5-  0.6-    240131 L06  0.4-  0.3+    240201 H21  0.0   0.0
240131 H36  0.1-  0.5-    240131 L06  0.3-  0.1-    240201 H21  0.0   0.0
240131 H36  0.1+  0.1+    240131 L06  0.5-  0.0     240201 H21  0.0   0.1+
240131 I52  0.3+  0.1+    240131 M45  0.0   1.0-    240201 B72  0.5-  0.3+
240131 I52  0.2-  0.1+    240131 M45  0.6-  0.8-    240201 B72  0.2+  0.6-
240131 I52  0.1+  0.1+    240131 M45  0.1-  0.2-
240131 I52  0.3+  0.2-    240131 595  0.1+  0.2+
Ephemeris:
2024 BS4                 a,e,i = 1.60, 0.37, 15                  q = 1.0131
Date    TT    R. A. (2000) Decl.     Delta      r    Elong.  Phase     V
2024 01 02    05 29 22.2 +86 11 26   0.1863  1.0796   116.6    54.5    24.2
...
2024 01 17    08 28 51.8 +84 19 10   0.1092  1.0372   116.5    58.0    23.0
...
2024 01 25    09 23 01.6 +76 12 16   0.06827 1.0227   122.5    54.2    21.9
...
2024 01 31    09 39 35.3 +57 31 36   0.04050 1.0161   139.1    39.4    20.3
2024 02 01    09 41 18.9 +51 42 56   0.03668 1.0153   144.5    34.3    20.0
2024 02 02    09 42 50.1 +44 37 39   0.03334 1.0147   151.0    28.1    19.6
...
2024 02 08    09 48 51.8 -16 11 04   0.03132 1.0130   147.9    31.2    19.5
...
2024 02 16    09 52 47.4 -52 20 38   0.06445 1.0166   115.0    61.7    22.0
...
2024 03 02    09 58 03.7 -64 50 47   0.1396  1.0410   107.2    65.4    23.8
A. U. Tomatic                (C) Copyright 2024 MPC           M.P.E.C. 2024-C10
    
    
More information about the Iaude
mailing list